User: anonymous   Login
Location: Unspecified
(0.0000°N, 0.0000°E)
Time: 22:49:57
(UTC+00:00)
Language:

deb r/b Ablestar - Orbit

View from above orbital plane
View from above orbital plane
View from above satellite
View from above satellite

Ground track
Ground track

The orbit data is extracted from the following two-line orbital elements,

1   335U 61015DM  17206.26430073 +.00000074 +00000-0 +77347-4 0  9998
2   335 066.8430 142.4122 0033826 044.2092 316.1694 14.16787883866473
Epoch (UTC): 25 July 2017 06:20:35
Eccentricity: 0.0033826
inclination: 66.8430°
perigee height: 812 km
apogee height: 860 km
right ascension of ascending node: 142.4122°
argument of perigee: 44.2092°
revolutions per day: 14.16787883
mean anomaly at epoch: 316.1694°
orbit number at epoch: 86647

The dashed part of the orbit path shows where the satellite is in the earth's shadow,  

DLR